Meteo Giornale » Osservazioni meteo Svizzera » Grenchen

ore: 19:50 - Osservazioni Meteo Grenchen
Lat. 47° 10' N Lon. 7° 24' E Alt. 430 metri s.l.m.

sereno Europe/Zurich

19 °C

Sereno

Temp. 24 Ore

9 °C

22 °C

Est/Nord-Est

9.3 Km/h

Dew point 15 °C

Umidità 77 %

Visibilità  10 Km

Il sole sorge alle ore 06:35

Il sole tramonta alle ore 20:31

Data e Ora Cielo e Fenomeni T °C DP °C Um. % Pres. hPa Vis. km Vento km/h
Oggi h: 19:50 sereno Sereno 19 15 77 1025 10 E/NE 9.3
Oggi h: 19:20 sereno Sereno 20 15 72 1025 10 E 11.1
Oggi h: 18:50 sereno Sereno 21 15 68 1025 10 E 11.1
Oggi h: 18:20 coperto_pioggia Pioggia Debole 22 15 64 1024 10 E 13
Oggi h: 17:50 sereno Sereno 22 15 64 1025 10 E 13
Oggi h: 17:20 sereno Sereno 21 14 64 1025 10 E 13
Oggi h: 16:50 poco_nuvoloso Poco Nuvoloso 21 14 64 1025 10 E/NE 13
Oggi h: 16:20 poco_nuvoloso Poco Nuvoloso 22 16 68 1025 10 E 11.1
Oggi h: 15:50 nuvoloso Nuvoloso 21 15 68 1025 10 E 9.3
Oggi h: 15:20 coperto Coperto 19 13 68 1025 10 E 13
Oggi h: 14:50 coperto Coperto 20 14 68 1025 10 E 7.4
Oggi h: 14:20 coperto Coperto 19 14 72 1025 10 E 7.4
Oggi h: 13:50 coperto Coperto 18 13 72 1025 10 E 9.3
Oggi h: 13:20 coperto Coperto 18 13 72 1025 10 E 9.3
Oggi h: 12:50 coperto Coperto 18 13 72 1025 10 E 11.1
Oggi h: 12:20 coperto Coperto 18 14 77 1025 10 E 9.3
Oggi h: 11:50 coperto Coperto 17 14 82 1025 10 E 11.1
Oggi h: 11:20 coperto Coperto 17 13 77 1025 10 E 13
Oggi h: 10:50 molto_nuvoloso Molto Nuvoloso 16 13 82 1025 10 E 13
Oggi h: 10:20 molto_nuvoloso Molto Nuvoloso 16 13 82 1025 10 E 13
Oggi h: 09:50 coperto Coperto 16 13 82 1025 10 E/NE 14.8
Oggi h: 09:20 coperto Coperto 15 13 87 1025 10 E/NE 11.1
Oggi h: 08:50 coperto Coperto 14 13 93 1025 10 N 5.5
Oggi h: 08:20 sereno Sereno 13 12 93 1024 10 E/NE 7.4
Oggi h: 07:50 sereno Sereno 12 12 100 1024 10 N 3.7
Oggi h: 07:20 poco_nuvoloso Poco Nuvoloso 11 10 93 1024 10 N 3.7
Oggi h: 06:50 sereno Sereno 10 9 93 1024 9 N 3.7
Oggi h: 06:20 sereno Sereno 10 10 100 1024 5 N 3.7
Oggi h: 05:50 sereno Sereno 11 10 93 1024 10 N/NE 7.4
Oggi h: 05:20 sereno Sereno 11 10 93 1024 10 N 3.7
Oggi h: 04:50 sereno Sereno 11 11 100 1024 10 N 3.7
Oggi h: 04:20 sereno Sereno 11 11 100 1024 10 N 5.5
Oggi h: 03:50 sereno Sereno 11 10 93 1024 10 NE 7.4
Oggi h: 03:20 sereno Sereno 9 9 100 1024 10 N 5.5
Oggi h: 02:50 sereno Sereno 11 10 93 1024 10 N 3.7
Oggi h: 02:20 sereno Sereno 10 10 100 1024 6 N 3.7
Oggi h: 01:50 sereno Sereno 11 10 93 1024 10 N 1.8
Oggi h: 01:20 sereno Sereno 12 10 87 1025 10 N 0
Oggi h: 00:50 sereno Sereno 14 11 82 1025 10 N 0
Oggi h: 00:20 sereno Sereno 15 11 76 1025 10 N 1.8
Ieri h: 23:50 sereno Sereno 14 11 82 1025 10 E/NE 7.4
Ieri h: 23:20 sereno Sereno 15 11 76 1025 10 N 5.5
Ieri h: 22:50 sereno Sereno 16 11 72 1025 10 NE 7.4
Ieri h: 22:20 nuvoloso Nuvoloso 15 11 76 1025 10 E/NE 11.1
Ieri h: 21:50 coperto Coperto 17 11 67 1025 10 E/NE 11.1
Ieri h: 21:20 coperto Coperto 17 11 67 1025 10 E/NE 13
Ieri h: 20:50 coperto Coperto 18 11 63 1025 10 NE 14.8